Date,TemperatureHighF,TemperatureAvgF,TemperatureLowF,DewpointHighF,DewpointAvgF,DewpointLowF,HumidityHigh,HumidityAvg,HumidityLow,PressureMaxIn,PressureMinIn,WindSpeedMaxMPH,WindSpeedAvgMPH,GustSpeedMaxMPH,PrecipitationSumIn
2013-3-1,34.0,31.5,27.8,30.0,26.6,21.0,86,82,73,30.03,29.90,6,2,8,0.00
2013-3-2,29.8,27.6,26.5,24.0,22.6,21.0,86,81,76,30.04,29.99,6,2,12,0.00
2013-3-3,31.1,27.2,24.2,21.0,18.6,17.0,82,70,58,30.05,29.98,6,2,11,0.00
2013-3-4,41.5,29.1,15.1,25.0,18.6,13.0,94,67,41,30.16,30.03,5,1,7,0.00
2013-3-5,40.9,35.4,31.1,31.0,28.8,26.0,94,78,60,30.07,29.55,4,1,10,0.06
2013-3-6,38.3,34.1,31.6,35.0,30.1,-99.9,96,88,80,30.19,29.55,6,-9,9,0.60
2013-3-7,42.4,35.0,31.4,33.0,29.5,27.0,87,81,67,30.34,30.18,5,1,8,0.12
2013-3-8,43.5,34.5,26.6,31.0,27.6,23.0,92,77,58,30.46,30.34,5,1,7,0.00
2013-3-9,56.1,40.6,23.5,36.0,30.6,22.0,96,71,45,30.38,30.06,6,1,12,0.00
2013-3-10,69.6,56.0,42.3,42.0,37.8,33.0,88,54,31,30.07,29.84,10,2,14,0.03
2013-3-11,57.5,50.0,41.0,52.0,44.7,35.0,95,83,49,29.86,29.57,8,2,15,0.76
2013-3-12,40.6,37.0,29.8,35.0,31.4,27.0,88,80,69,30.00,29.80,7,2,11,0.01
2013-3-13,33.8,30.6,27.9,31.0,24.7,19.0,93,79,67,30.25,29.95,8,3,13,0.00
2013-3-14,42.3,31.2,21.6,25.0,21.0,17.0,84,67,47,30.31,30.13,6,1,9,0.01
2013-3-15,50.4,39.0,26.0,41.0,32.4,21.0,93,78,62,30.14,29.83,4,1,9,0.14
2013-3-16,52.4,42.0,32.8,48.0,39.6,30.0,96,91,82,30.02,29.61,8,2,12,0.10
2013-3-17,38.7,34.8,32.3,30.0,27.9,26.0,89,76,64,30.16,30.02,6,2,10,0.00
2013-3-18,50.0,40.9,32.5,49.0,38.6,27.0,97,92,77,30.06,29.60,7,2,12,0.43
2013-3-19,39.7,35.4,29.7,37.0,25.2,20.0,90,68,48,30.02,29.77,12,3,17,0.00
2013-3-20,37.6,31.0,23.5,23.0,18.2,13.0,75,60,49,30.02,29.91,9,3,15,0.00
2013-3-21,31.5,25.1,18.5,22.0,16.9,13.0,86,71,59,29.98,29.91,7,2,12,0.00
2013-3-22,42.7,31.0,20.7,24.0,19.5,16.0,84,65,42,30.04,29.97,7,2,11,0.00
2013-3-23,48.5,34.7,20.9,29.0,23.5,18.0,92,67,41,30.06,29.95,4,1,8,0.00
2013-3-24,37.5,34.5,30.8,31.0,26.7,23.0,91,74,58,29.96,29.42,5,2,11,0.02
2013-3-25,36.2,32.9,30.5,33.0,31.1,29.0,95,93,86,29.86,29.39,6,2,12,0.14
2013-3-26,42.5,36.1,32.6,34.0,30.6,24.0,94,82,51,30.15,29.87,10,3,14,0.26
2013-3-27,44.2,38.1,33.5,33.0,28.8,24.0,87,70,50,30.25,30.16,8,2,12,0.00
2013-3-28,49.7,38.5,29.3,30.0,26.8,24.0,83,65,45,30.30,30.23,7,2,12,0.00
2013-3-29,55.1,40.5,25.4,34.0,28.6,23.0,94,66,42,30.30,30.19,7,1,10,0.00
2013-3-30,57.7,42.1,25.1,37.0,27.8,23.0,96,63,30,30.25,29.96,5,1,9,0.00
2013-3-31,56.0,47.2,39.7,48.0,40.5,30.0,94,78,62,29.94,29.73,9,1,11,0.07